Estación Meteorológica Peña el Pijo (Robertgarden) [ 07/07/20 10:40:21 CEST ]

Fecha Hora Presion(HPa) Temp (°C) Humedad % Rocio (°C) Viento ( m/s) Direccion Lluvia 1Hora(mm) Lluvia 24H(mm) LLuvia Total(mm)
2020-Mar-06 01:09:33 1004.900 - - - - N     39.88
2020-Mar-06 02:09:56 1004.500 - - - - N     39.88
2020-Mar-06 03:09:03 1004.600 - - - - N     39.88
2020-Mar-06 04:09:28 1004.800 - - - - N     39.88
2020-Mar-06 05:09:48 1005.100 - - - - N     39.88
2020-Mar-06 06:09:51 1005.500 - - - - N     39.88
2020-Mar-06 07:08:58 1005.800 - - - - N     39.88
2020-Mar-06 08:09:06 1005.800 - - - - N     39.88
2020-Mar-06 09:09:08 1006.000 - - - - N     39.88
2020-Mar-06 10:09:12 1006.200 - - - - N     39.88
2020-Mar-06 11:08:56 1005.900 - - - - N     39.88
2020-Mar-06 12:09:28 1005.800 - - - - N     39.88
2020-Mar-06 13:09:30 1006.700 - - - - N     39.88
2020-Mar-06 14:08:57 1006.200 - - - - N     39.88
2020-Mar-06 15:09:16 1006.100 - - - - N     39.88
2020-Mar-06 16:09:17 1006.000 - - - - N     39.88
2020-Mar-06 17:09:41 1006.300 - - - - N     39.88
2020-Mar-06 18:09:18 1006.800 - - - - N     39.88
2020-Mar-06 19:08:58 1007.900 - - - - N     39.88
2020-Mar-06 20:09:09 1009.100 - - - - N     39.88
2020-Mar-06 21:09:29 1009.700 - - - - N     39.88
2020-Mar-06 22:09:16 1010.400 - - - - N     39.88
2020-Mar-06 23:09:49 1011.100 - - - - N     39.88

Temperatura Máxima:    Temperatura Mínima:
Presión Máxima:1011.100 Hpa    Presión Mínima:1004.500 Hpa


Volver